Huvudsida
METAR-TAF:

METAR-TAF

Flygplatser :

Sogndals flygplats. Haukåsen

Sogndals, Norge

latitud: 61-09N, longitud: 007-08E, höjd: 49 m

Aktuellt väderrapport

Denna rapport gjordes för 20 minuter sedan, klockan 18:20 UTC
Vind 3 kt från ost
Temperatur -10°C
Fuktighet 100%
Tryck 1029 hPa
Sikt 10 km eller mer
Inga moln under 1 500 m eller inga cumulonimbus

METAR: ENSG 131820Z 08003KT CAVOK M10/M10 Q1029 RMK WIND 3806FT VRB02KT

Tid: 19:40 (18:40 UTC)


TAF: saknas

Aktuella väderrapporter och prognoser från 4000 flygplatser (METAR- och TAF-rapporter).

De tillgängliga stationerna syns som gula och röda prickar på kartan.

För musen över prickarna för att se namnen på stationerna.

Klicka sedan för att få väderrapporter och prognoser.

För att ändra kartan: Klicka på de gröna knapparna med ett svart kors på för att zooma in; den gröna knappen med ett streck på för att zooma ut; eller på de gröna pilarna för angränsande kartor.


METAR-TAF: